TimeMDT,TemperatureF,Dew PointF,Humidity,Sea Level PressureIn,VisibilityMPH,Wind Direction,Wind SpeedMPH,Gust SpeedMPH,PrecipitationIn,Events,Conditions,WindDirDegrees,DateUTC
12:53 AM,28.4,21.2,74,30.00,10.0,SSE,9.2,-,N/A,,Clear,160,2011-10-27 06:53:00
1:53 AM,28.9,21.9,75,30.04,10.0,SSE,10.4,-,N/A,,Clear,160,2011-10-27 07:53:00
2:53 AM,30.0,21.9,72,30.03,10.0,SSE,6.9,-,N/A,,Clear,150,2011-10-27 08:53:00
3:53 AM,28.9,21.9,75,30.02,10.0,SSE,6.9,-,N/A,,Clear,150,2011-10-27 09:53:00
4:53 AM,30.2,23.0,75,29.97,10.0,SE,3.5,-,N/A,,Partly Cloudy,140,2011-10-27 10:53:00
5:53 AM,30.9,24.1,76,30.04,10.0,South,3.5,-,N/A,,Overcast,180,2011-10-27 11:53:00
6:53 AM,30.0,23.0,75,30.04,10.0,South,6.9,-,N/A,,Scattered Clouds,180,2011-10-27 12:53:00
7:53 AM,30.9,23.0,72,30.06,10.0,WSW,5.8,-,N/A,,Scattered Clouds,250,2011-10-27 13:53:00
8:53 AM,36.0,25.0,64,30.07,10.0,WNW,4.6,-,N/A,,Clear,290,2011-10-27 14:53:00
9:53 AM,41.0,24.1,51,30.07,10.0,West,5.8,-,N/A,,Partly Cloudy,270,2011-10-27 15:53:00
10:53 AM,48.9,21.9,35,30.07,10.0,NW,16.1,23.0,N/A,,Mostly Cloudy,310,2011-10-27 16:53:00
11:53 AM,50.0,21.9,33,30.07,10.0,NNW,15.0,20.7,N/A,,Clear,330,2011-10-27 17:53:00
12:53 PM,50.0,21.0,32,30.07,10.0,NNW,11.5,24.2,N/A,,Mostly Cloudy,330,2011-10-27 18:53:00
1:53 PM,50.0,19.9,31,30.07,10.0,WNW,15.0,-,N/A,,Overcast,290,2011-10-27 19:53:00
2:53 PM,52.0,19.0,27,30.07,10.0,NNW,18.4,23.0,N/A,,Overcast,330,2011-10-27 20:53:00
3:53 PM,50.0,18.0,28,30.08,10.0,NW,10.4,19.6,N/A,,Overcast,310,2011-10-27 21:53:00
4:53 PM,48.2,19.4,32,30.05,10.0,NW,9.2,-,N/A,,Overcast,310,2011-10-27 22:53:00
5:53 PM,46.0,19.0,34,30.12,10.0,WNW,5.8,-,N/A,,Overcast,300,2011-10-27 23:53:00
6:53 PM,43.0,18.0,37,30.14,10.0,NNW,8.1,-,N/A,,Clear,330,2011-10-28 00:53:00
7:53 PM,37.9,18.0,45,30.17,10.0,NNW,5.8,-,N/A,,Clear,340,2011-10-28 01:53:00
8:53 PM,33.1,19.0,56,30.17,10.0,WNW,6.9,-,N/A,,Partly Cloudy,300,2011-10-28 02:53:00
9:53 PM,30.9,18.0,59,30.19,10.0,WNW,8.1,-,N/A,,Mostly Cloudy,290,2011-10-28 03:53:00
10:53 PM,32.0,19.0,59,30.17,10.0,West,5.8,-,N/A,,Overcast,280,2011-10-28 04:53:00
11:53 PM,30.9,19.0,61,30.19,10.0,WNW,8.1,-,N/A,,Mostly Cloudy,290,2011-10-28 05:53:00